Meteopurmerend
purmerend
Purmerend - Baaienwijk



My webcam  My webcam


Onweer radar Meer informatie blitzortung!


Regen radar Meer informatie rain snow radar


Bezoek onze andere website:

CandyAppleRed WebdesignWebdesign Purmerend Candy Apple Red

MeteopurmerendBlog

Template documentation
and downloads



Mist van: 18-09-2021 08:00 tot: 09:00 waarschuwing voor: Mist niveau: Geel info button
Lokaal dichte mist (minder dan 200 m).Gevaarlijke rijomstandigheden door slecht zicht.Pas snelheid aan en houd voldoende afstand.Mist kan verraderlijk zijn door plotseling optreden.Volg weerberichten en waarschuwingen.

15 daagse weersverwachting Lyon (FR)

  • Overzicht
  • Per uur
  • 15 dagen
  • Extra
  • Vergelijk
  • Kaarten
  • Dagkaart
  • Meer »
  • Info
  • Statistieken
  • Directe link
    Temp 6h Neerslag Wind  
 07:24     19:45    Daglengte: 12:21 Vandaag
14:00
24°
 
2
20:00
21°
 
2
 07:26     19:43    Daglengte: 12:17 Morgen
02:00
17°
4.8 mm
5
08:00
14°
34.4 mm
1
14:00
18°
4.2 mm
2
20:00
17°
 
2
 07:27     19:41    Daglengte: 12:14 Maandag 20 Sep
02:00
15°
5.3 mm
1
08:00
14°
 
1
14:00
17°
35.3 mm
2
20:00
15°
28.2 mm
1
 07:28     19:39    Daglengte: 12:11 Dinsdag 21 Sep
02:00
14°
8.9 mm
3
08:00
14°
 
2
Locatie info
Region: Rhône-Alpes
Latitude: 45.7594°N
Longitude: 4.8290°E
173 masl
Postcode: 69002
Temp/Neerslag /Baro Onweer/Dauwpunt
    Temp Baro 1h Neerslag Dauwpunt Wind UV Bewolking  
 07:24     19:45    Daglengte: 12:21 Vandaag
11:00
20°
1014.9 hPa   13.4°
1
Windvlaag: -2.2 m/s
4%
12:00
21°
1014.4 hPa   13.4°
1
Windvlaag: -2.4 m/s
7%
13:00
23°
1014.0 hPa   13.2°
2
Windvlaag: -3.3 m/s
12%
14:00
24°
1013.5 hPa   12.9°
2
Windvlaag: -4.1 m/s
7%
15:00
24°
1013.0 hPa   12.4°
2
Windvlaag: -4.6 m/s
4%
16:00
25°
1012.1 hPa   12.5°
2
Windvlaag: -4.7 m/s
37%
17:00
24°
1011.7 hPa   12.3°
3
Windvlaag: -4.4 m/s
45%
18:00
24°
1011.5 hPa   12.0°
3
Windvlaag: -4 m/s
43%
19:00
23°
1011.4 hPa   11.8°
2
Windvlaag: -3.3 m/s
15%
20:00
21°
1011.5 hPa   12.7°
2
Windvlaag: -2.4 m/s
25%
21:00
20°
1011.6 hPa   13.5°
1
Windvlaag: -2.8 m/s
55%
22:00
19°
1011.7 hPa
16%
14.6°
2
Windvlaag: -0.7 m/s
53%
23:00
19°
1011.7 hPa
20%
14.9°
2
Windvlaag: -0 m/s
68%
 07:26     19:43    Daglengte: 12:17 Morgen
00:00
18°
1011.7 hPa
64%
15.5°
3
Windvlaag: 0.6 m/s
84%
01:00
17°
1011.9 hPa 1.4 mm
82%
15.2°
5
Windvlaag: -2.3 m/s
86%
02:00
17°
1012.5 hPa 3.4 mm
82%
14.7°
5
Windvlaag: -4.3 m/s
86%
03:00
16°
1013.0 hPa 7.6 mm
82%
13.7°
4
Windvlaag: -3.8 m/s
86%
04:00
15°
1013.2 hPa 6.6 mm
82%
12.8°
4
Windvlaag: -0.5 m/s
86%
05:00
15°
1013.3 hPa 6.7 mm
82%
12.0°
4
Windvlaag: -0.2 m/s
86%
06:00
15°
1014.3 hPa 4.7 mm
82%
12.2°
2
Windvlaag: -2 m/s
86%
07:00
14°
1014.7 hPa 4.5 mm
82%
12.4°
2
Windvlaag: 1.9 m/s
85%
08:00
14°
1015.3 hPa 4.3 mm
82%
12.5°
1
Windvlaag: 2.6 m/s
86%
09:00
15°
1015.7 hPa 4.2 mm
82%
12.7°
1
Windvlaag: 1.3 m/s
85%
10:00
15°
1016.2 hPa
82%
11.9°
1
Windvlaag: 3 m/s
74%
11:00
16°
1016.9 hPa
82%
11.5°
1
Windvlaag: 4.2 m/s
84%
12:00
16°
1016.9 hPa
82%
10.4°
1
Windvlaag: 3.2 m/s
64%
13:00
18°
1016.7 hPa
81%
10.2°
2
Windvlaag: 1.3 m/s
69%
14:00
18°
1016.5 hPa
29%
10.0°
2
Windvlaag: 1 m/s
64%
15:00
19°
1016.2 hPa
26%
10.1°
2
Windvlaag: -0.2 m/s
66%
16:00
19°
1015.8 hPa
32%
9.7°
2
Windvlaag: -1.2 m/s
67%
17:00
18°
1015.8 hPa
35%
9.6°
2
Windvlaag: -1.9 m/s
81%
18:00
18°
1016.0 hPa
71%
9.4°
2
Windvlaag: -1.3 m/s
85%
19:00
17°
1016.4 hPa
33%
10.1°
2
Windvlaag: -0.5 m/s
77%
20:00
17°
1016.8 hPa
32%
10.3°
2
Windvlaag: 0.1 m/s
74%
21:00
16°
1017.1 hPa
29%
10.4°
2
Windvlaag: 0.1 m/s
64%
22:00
16°
1017.4 hPa
66%
10.6°
1
Windvlaag: 0.7 m/s
68%
23:00
15°
1017.4 hPa
70%
11.4°
1
Windvlaag: 2.2 m/s
65%
 07:27     19:41    Daglengte: 12:14 Maandag 20 Sep
00:00
15°
1017.3 hPa
82%
11.2°
1
Windvlaag: 2.8 m/s
68%
01:00
15°
1017.0 hPa 5.3 mm
82%
11.4°
1
Windvlaag: 4 m/s
85%
02:00
15°
1017.1 hPa
82%
12.2°
1
Windvlaag: 4.1 m/s
79%
03:00
14°
1017.1 hPa
82%
12.6°
1
Windvlaag: 4.3 m/s
73%
04:00
14°
1016.8 hPa
82%
12.6°
1
Windvlaag: 3.1 m/s
72%
05:00
14°
1016.8 hPa
100%
11.0°
1
Windvlaag: 2.7 m/s
100%
06:00
14°
1016.9 hPa
43%
10.9°
1
Windvlaag: 2.2 m/s
98%
07:00
14°
1017.0 hPa
41%
11.0°
1
Windvlaag: 1.8 m/s
100%
08:00
14°
1017.3 hPa
89%
10.9°
1
Windvlaag: 1.7 m/s
100%
09:00
14°
1017.5 hPa
95%
10.9°
1
Windvlaag: 1.5 m/s
99%
10:00
15°
1017.8 hPa 8.7 mm
100%
10.7°
1
Windvlaag: 1 m/s
100%
11:00
15°
1018.1 hPa 8.7 mm
100%
10.1°
1
Windvlaag: 0.4 m/s
100%
12:00
16°
1018.2 hPa
59%
10.1°
2
Windvlaag: -0.6 m/s
99%
13:00
17°
1017.9 hPa 8.8 mm
92%
10.2°
2
Windvlaag: -1.7 m/s
100%
14:00
17°
1017.9 hPa 9.0 mm
52%
9.9°
2
Windvlaag: -1.8 m/s
97%
15:00
17°
1017.8 hPa 5.4 mm
100%
9.3°
2
Windvlaag: -2 m/s
100%
16:00
16°
1017.9 hPa 5.4 mm
100%
9.3°
2
Windvlaag: -1.9 m/s
100%
17:00
16°
1018.0 hPa 8.8 mm
100%
9.4°
2
Windvlaag: -1.4 m/s
100%
18:00
16°
1018.3 hPa 8.7 mm
100%
10.2°
2
Windvlaag: -0.9 m/s
95%
19:00
16°
1018.9 hPa
98%
10.8°
2
Windvlaag: -0.2 m/s
97%
20:00
15°
1019.4 hPa
26%
11.1°
1
Windvlaag: -0.4 m/s
88%
21:00
15°
1019.9 hPa
37%
11.6°
1
Windvlaag: -0.2 m/s
87%
22:00
15°
1020.5 hPa 8.9 mm
88%
12.0°
1
Windvlaag: -0.3 m/s
85%
23:00
15°
1020.7 hPa
97%
12.4°
2
Windvlaag: -0.4 m/s
87%
 07:28     19:39    Daglengte: 12:11 Dinsdag 21 Sep
00:00
15°
1020.9 hPa
43%
12.7°
2
Windvlaag: -1.1 m/s
87%
01:00
15°
1021.0 hPa
43%
12.4°
2
Windvlaag: -1.3 m/s
83%
02:00
14°
1021.0 hPa
89%
12.2°
3
Windvlaag: -2.6 m/s
83%
03:00
15°
1021.4 hPa
34%
12.2°
2
Windvlaag: 5.6 m/s
66%
04:00
14°
1021.6 hPa
36%
12.1°
2
Windvlaag: 5.3 m/s
65%
05:00
14°
1022.1 hPa
29%
11.8°
2
Windvlaag: 5.5 m/s
18%
06:00
14°
1022.4 hPa
27%
11.4°
2
Windvlaag: 5.8 m/s
30%
07:00
14°
1022.7 hPa
37%
11.5°
2
Windvlaag: 6.8 m/s
29%
08:00
14°
1023.1 hPa
85%
10.8°
2
Windvlaag: 7 m/s
51%
09:00
14°
1021.1 hPa 25.8 mm
100%
9.1°
4
Windvlaag: 6.4 m/s
21%
10:00
15°
1021.5 hPa 25.8 mm
100%
9.2°
3
Windvlaag: 5.1 m/s
5%
Temp/Neerslag /Baro Onweer/Dauwpunt
    Temp Baro Neerslag Dauwpunt Wind Bewolking  
 07:24     19:45    Daglengte: 12:21 Vandaag
11:00
20°
1014.9 hPa   13.4°
1
4%
14:00
24°
1013.5 hPa   12.9°
2
7%
17:00
24°
1011.7 hPa   12.3°
3
45%
20:00
21°
1011.5 hPa   12.7°
2
25%
23:00
19°
1011.7 hPa   14.9°
2
68%
 07:26     19:43    Daglengte: 12:17 Morgen
02:00
17°
1012.5 hPa 4.8 mm 14.7°
5
86%
05:00
15°
1013.3 hPa 21.0 mm 12.0°
4
86%
08:00
14°
1015.3 hPa 13.4 mm 12.5°
1
86%
11:00
16°
1016.9 hPa 4.2 mm 11.5°
1
84%
14:00
18°
1016.5 hPa   10.0°
2
64%
17:00
18°
1015.8 hPa   9.6°
2
81%
20:00
17°
1016.8 hPa   10.3°
2
74%
23:00
15°
1017.4 hPa   11.4°
1
65%
 07:27     19:41    Daglengte: 12:14 Maandag 20 Sep
02:00
15°
1017.1 hPa 5.3 mm 12.2°
1
79%
05:00
14°
1016.8 hPa   11.0°
1
100%
08:00
14°
1017.3 hPa   10.9°
1
100%
11:00
15°
1018.1 hPa 17.4 mm 10.1°
1
100%
14:00
17°
1017.9 hPa 17.9 mm 9.9°
2
97%
17:00
16°
1018.0 hPa 19.6 mm 9.4°
2
100%
20:00
15°
1019.4 hPa 8.7 mm 11.1°
1
88%
23:00
15°
1020.7 hPa 8.9 mm 12.4°
2
87%
 07:28     19:39    Daglengte: 12:11 Dinsdag 21 Sep
02:00
14°
1021.0 hPa   12.2°
3
83%
05:00
14°
1022.1 hPa   11.8°
2
18%
08:00
14°
1023.1 hPa   10.8°
2
51%
11:00
17°
1021.8 hPa 77.4 mm 9.5°
2
0%
14:00
21°
1022.2 hPa 77.4 mm 10.4°
4
0%
17:00
21°
1023.8 hPa 25.2 mm 11.0°
3
0%
20:00
17°
1025.3 hPa 25.2 mm 11.9°
2
0%
23:00
15°
1025.6 hPa 25.2 mm 11.1°
2
0%
 07:29     19:37    Daglengte: 12:08 Woensdag 22 Sep
02:00
13°
1025.8 hPa 25.2 mm 10.3°
1
0%
05:00
12°
1025.1 hPa 25.2 mm 9.7°
1
0%
08:00
11°
1025.1 hPa 25.2 mm 9.3°
1
0%
11:00
16°
1024.7 hPa 25.2 mm 9.7°
2
0%
14:00
20°
1022.9 hPa 25.2 mm 10.2°
3
0%
17:00
21°
1021.3 hPa 25.2 mm 9.6°
2
0%
20:00
17°
1021.2 hPa 25.2 mm 10.0°
1
1%
23:00
16°
1021.5 hPa 25.2 mm 9.9°
1
1%
 07:31     19:35    Daglengte: 12:04 Donderdag 23 Sep
02:00
14°
1021.4 hPa 25.2 mm 10.1°
0
1%
05:00
13°
1020.9 hPa 25.2 mm 9.7°
0
1%
08:00
12°
1020.6 hPa 25.2 mm 9.5°
1
0%
11:00
18°
1020.4 hPa 25.2 mm 10.3°
1
1%
14:00
23°
1018.7 hPa 25.2 mm 9.7°
1
0%
17:00
24°
1016.5 hPa 25.2 mm 9.8°
2
0%
20:00
19°
1016.6 hPa 25.2 mm 12.0°
1
0%
23:00
17°
1017.1 hPa 25.2 mm 11.5°
1
0%
 07:32     19:33    Daglengte: 12:01 Vrijdag 24 Sep
02:00
15°
1016.7 hPa 25.2 mm 11.2°
1
0%
05:00
14°
1015.8 hPa 25.2 mm 10.7°
1
0%
08:00
14°
1015.6 hPa 25.2 mm 10.5°
0
0%
11:00
19°
1015.4 hPa 25.2 mm 10.9°
0
0%
14:00
24°
1014.0 hPa 25.2 mm 9.8°
2
0%
17:00
24°
1012.6 hPa 25.2 mm 9.9°
3
0%
20:00
19°
1013.9 hPa 25.2 mm 11.4°
2
0%
23:00
17°
1015.1 hPa 25.2 mm 11.0°
1
0%
 07:33     19:32    Daglengte: 11:59 Zaterdag 25 Sep
02:00
15°
1015.5 hPa 25.2 mm 10.7°
1
0%
05:00
14°
1015.2 hPa 25.2 mm 11.0°
1
0%
08:00
14°
1015.6 hPa 50.5 mm 10.5°
1
0%
14:00
22°
1015.1 hPa 50.5 mm 10.7°
2
0%
20:00
19°
1015.1 hPa 50.5 mm 12.0°
2
0%
 07:34     19:30    Daglengte: 11:56 Zondag 26 Sep
02:00
15°
1017.0 hPa 50.5 mm 11.3°
1
0%
08:00
13°
1017.5 hPa 50.5 mm 10.6°
1
0%
14:00
23°
1017.1 hPa 50.5 mm 12.1°
2
0%
20:00
19°
1015.9 hPa 50.5 mm 12.5°
1
0%
 07:36     19:28    Daglengte: 11:52 Maandag 27 Sep
02:00
16°
1016.7 hPa 50.5 mm 12.4°
0
0%
08:00
16°
1016.2 hPa 50.6 mm 12.7°
1
1%
14:00
18°
1016.7 hPa 50.9 mm 14.4°
2
1%
20:00
18°
1015.7 hPa 50.9 mm 14.7°
1
1%
 07:37     19:26    Daglengte: 11:49 Dinsdag 28 Sep
02:00
17°
1017.0 hPa 51.1 mm 14.4°
1
1%
08:00
10°
1022.4 hPa 0.4 mm 8.7°
0
33%
14:00
21°
1020.8 hPa 0.2 mm 10.5°
0
37%
20:00
16°
1021.1 hPa 0.2 mm 11.0°
0
35%
 07:38     19:24    Daglengte: 11:46 Woensdag 29 Sep
02:00
13°
1022.4 hPa 0.3 mm 10.2°
1
40%
08:00
12°
1022.2 hPa 0.4 mm 9.7°
0
38%
14:00
21°
1020.7 hPa 0.6 mm 11.5°
0
45%
20:00
16°
1020.8 hPa 0.3 mm 11.5°
0
43%
 07:39     19:22    Daglengte: 11:43 Donderdag 30 Sep
02:00
13°
1021.7 hPa 0.8 mm 10.8°
1
47%
08:00
12°
1021.4 hPa 0.9 mm 10.4°
0
53%
14:00
21°
1019.7 hPa 0.9 mm 12.1°
0
52%
20:00
16°
1019.3 hPa 0.8 mm 11.9°
0
54%
 07:41     19:20    Daglengte: 11:39 Vrijdag 01 Okt
02:00
13°
1019.7 hPa 1.1 mm 11.0°
0
55%
08:00
12°
1019.0 hPa 2.0 mm 10.3°
0
57%
14:00
19°
1017.0 hPa 2.2 mm 11.5°
1
59%
20:00
15°
1016.9 hPa 1.0 mm 10.8°
1
57%
 07:42     19:18    Daglengte: 11:36 Zaterdag 02 Okt
02:00
12°
1017.8 hPa 1.8 mm 9.8°
1
59%
08:00
11°
1017.8 hPa 2.0 mm 9.0°
1
55%
14:00
18°
1016.6 hPa 1.3 mm 10.9°
2
58%
20:00
14°
1017.1 hPa 0.9 mm 10.4°
1
56%
 07:43     19:16    Daglengte: 11:33 Zondag 03 Okt
02:00
12°
1018.3 hPa 0.3 mm 9.3°
1
53%
08:00
10°
1018.6 hPa 1.1 mm 8.2°
1
56%
  CAPE Lifted Index Hail Supercell Tornado SRH 3km CL BTM PRES CL TOP PRES Swiss DWD icon SMHI TS
 07:24     19:45    Daglengte: 12:21 Vandaag
11:00 0 J/kg 3.1 K 0 % 0 % 0 % 0 m²/s² 0 0 5.92 0
12:00 0 J/kg 2.8 K 0 % 0 % 0 % 0 m²/s² 0 0 5.62 1
13:00 0 J/kg 1.5 K 0 % 0 % 0 % 0 m²/s² 0 0 4.17 1
14:00 0 J/kg 1.1 K 0 % 0 % 0 % 0 m²/s² 0 0 3.71 1
15:00 0 J/kg 0.9 K 0 % 0 % 0 % 0 m²/s² 0 0 3.57 1
16:00 0 J/kg 0.4 K 0 % 0 % 0 % 0 m²/s² 0 0 2.92 3
17:00 0 J/kg 0.3 K 0 % 0 % 0 % 0 m²/s² 0 0 2.73 3
18:00 0 J/kg -0.2 K 0 % 0 % 0 % 0 m²/s² 0 0 1.51 3
19:00 0 J/kg -0.6 K 0 % 0 % 0 % 0 m²/s² 0 0 0.51 3
20:00 0 J/kg -1.0 K 0 % 0 % 0 % 0 m²/s² 0 0 -0.25 2
21:00 71 J/kg -1.0 K 0 % 0 % 0 % 0 m²/s² 0 0 -1 3
22:00 58 J/kg -1.4 K 0 % 0 % 0 % 0 m²/s² 0 0 -0.98 3
23:00 0 J/kg 0.8 K 0 % 0 % 0 % 0 m²/s² 0 0 0.98 3
 07:26     19:43    Daglengte: 12:17 Morgen
00:00 0 J/kg 0.8 K 0 % 0 % 0 % 0 m²/s² 0 0 0.89 3
01:00 0 J/kg 0.8 K 0 % 0 % 0 % 0 m²/s² 0 0 0.89 61
02:00 13 J/kg -0.2 K 0 % 0 % 0 % 0 m²/s² 0 0 -0.11 63
03:00 166 J/kg -0.8 K 0 % 0 % 0 % 0 m²/s² 0 0 -0.8 63
04:00 23 J/kg -0.2 K 0 % 0 % 0 % 0 m²/s² 0 0 -0.02 63
05:00 0 J/kg 1.6 K 0 % 0 % 0 % 0 m²/s² 0 0 1.84 63
06:00 0 J/kg 1.3 K 0 % 0 % 0 % 0 m²/s² 0 0 1.54 61
07:00 0 J/kg 0.1 K 0 % 0 % 0 % 0 m²/s² 0 0 0.61 61
08:00 0 J/kg -0.5 K 0 % 0 % 0 % 0 m²/s² 0 0 0.61 61
09:00 2 J/kg 0.5 K 0 % 0 % 0 % 0 m²/s² 0 0 1.19 61
10:00 6 J/kg 1.1 K 0 % 0 % 0 % 0 m²/s² 0 0 1.43 61
11:00 25 J/kg 1.3 K 0 % 0 % 0 % 0 m²/s² 0 0 1.48 61
12:00 56 J/kg 1.0 K 0 % 0 % 0 % 0 m²/s² 0 0 1.12 61
13:00 152 J/kg 0.1 K 0 % 0 % 0 % 0 m²/s² 0 0 0.28 61
14:00 184 J/kg 0.4 K 0 % 0 % 0 % 0 m²/s² 0 0 0.58 3
15:00 209 J/kg 0.4 K 0 % 0 % 0 % 0 m²/s² 0 0 0.91 3
16:00 227 J/kg 0.4 K 0 % 0 % 0 % 0 m²/s² 0 0 1.27 3
17:00 197 J/kg 0.3 K 0 % 0 % 0 % 0 m²/s² 0 0 0.99 3
18:00 124 J/kg 1.2 K 0 % 0 % 0 % 0 m²/s² 0 0 1.71 3
19:00 132 J/kg 0.9 K 0 % 0 % 0 % 0 m²/s² 0 0 2.13 3
20:00 85 J/kg 1.3 K 0 % 0 % 0 % 0 m²/s² 0 0 2.71 3
21:00 12 J/kg 2.0 K 0 % 0 % 0 % 0 m²/s² 0 0 3.35 3
22:00 1 J/kg 2.2 K 0 % 0 % 0 % 0 m²/s² 0 0 3.67 3
23:00 7 J/kg 2.2 K 0 % 0 % 0 % 0 m²/s² 0 0 3.37 3
 07:27     19:41    Daglengte: 12:14 Maandag 20 Sep
00:00 0 J/kg 2.2 K 0 % 0 % 0 % 0 m²/s² 0 0 3.07 61
01:00 0 J/kg 2.0 K 0 % 0 % 0 % 0 m²/s² 0 0 2.78 61
02:00 0 J/kg 1.8 K 0 % 0 % 0 % 0 m²/s² 0 0 2.58 61
03:00 0 J/kg 1.2 K 0 % 0 % 0 % 0 m²/s² 0 0 2.04 61
04:00 0 J/kg 0.6 K 0 % 0 % 0 % 0 m²/s² 0 0 1.38 61
05:00 0 J/kg 0.3 K 0 % 0 % 0 % 0 m²/s² 0 0 0.99 3
06:00 0 J/kg 0.6 K 0 % 0 % 0 % 0 m²/s² 0 0 1.11 3
07:00 0 J/kg 1.8 K 0 % 0 % 0 % 0 m²/s² 0 0 1.98 3
08:00 0 J/kg 2.2 K 0 % 0 % 0 % 0 m²/s² 0 0 2.41 3
09:00 0 J/kg 2.3 K 0 % 0 % 0 % 0 m²/s² 0 0 2.48 61
10:00 7 J/kg 1.9 K 0 % 0 % 0 % 0 m²/s² 0 0 2.08 61
11:00 47 J/kg 1.4 K 0 % 0 % 0 % 0 m²/s² 0 0 1.91 61
12:00 56 J/kg 1.1 K 0 % 0 % 0 % 0 m²/s² 0 0 2.12 3
13:00 45 J/kg 0.9 K 0 % 0 % 0 % 0 m²/s² 0 0 1.98 3
14:00 45 J/kg 0.8 K 0 % 0 % 0 % 0 m²/s² 0 0 1.97 3
15:00 54 J/kg 0.8 K 0 % 0 % 0 % 0 m²/s² 0 0 2.15 61
16:00 31 J/kg 0.7 K 0 % 0 % 0 % 0 m²/s² 0 0 2.11 61
17:00 46 J/kg 0.4 K 0 % 0 % 0 % 0 m²/s² 0 0 1.63 61
18:00 51 J/kg 0.1 K 0 % 0 % 0 % 0 m²/s² 0 0 1.39 61
19:00 31 J/kg 0.2 K 0 % 0 % 0 % 0 m²/s² 0 0 1.28 3
20:00 11 J/kg 0.2 K 0 % 0 % 0 % 0 m²/s² 0 0 1.13 3
21:00 4 J/kg 0.5 K 0 % 0 % 0 % 0 m²/s² 0 0 1.19 3
22:00 25 J/kg 0.1 K 0 % 0 % 0 % 0 m²/s² 0 0 0.58 3
23:00 28 J/kg 0.2 K 0 % 0 % 0 % 0 m²/s² 0 0 0.77 3
 07:28     19:39    Daglengte: 12:11 Dinsdag 21 Sep
00:00 6 J/kg -0.2 K 0 % 0 % 0 % 0 m²/s² 0 0 0.37 2
01:00 0 J/kg -0.1 K 0 % 0 % 0 % 0 m²/s² 0 0 0.65 3
02:00 0 J/kg 0.2 K 0 % 0 % 0 % 0 m²/s² 0 0 1.04 3
03:00 0 J/kg 0.7 K 0 % 0 % 0 % 0 m²/s² 0 0 1.78 3
04:00 0 J/kg 1.0 K 0 % 0 % 0 % 0 m²/s² 0 0 2.41 3
05:00 0 J/kg 1.5 K 0 % 0 % 0 % 0 m²/s² 0 0 3 2
06:00 0 J/kg 2.3 K 0 % 0 % 0 % 0 m²/s² 0 0 3.86 3
07:00 0 J/kg 3.0 K 0 % 0 % 0 % 0 m²/s² 0 0 4.56 2
08:00 0 J/kg 3.6 K 0 % 0 % 0 % 0 m²/s² 0 0 5.34 2
09:00 0 J/kg 4.5 K 0 % 0 % 0 % 0 m²/s² 0 0 6.57
10:00 0 J/kg 4.9 K 0 % 0 % 0 % 0 m²/s² 0 0 7.54
Temp Baro Wind Neerslag
  EWN Forecast EWN WRFDA DWD ICON FMI HIRLAM MET Norway GFS
 07:24     19:45    Daglengte: 12:21 Vandaag
11:00 19.5° 1014.9 hPa 0.9 m/s 0.0 mm 18.5° 1013.4 hPa 1.5 m/s 0.0 mm 19.6° 1015.0 hPa 0.9 m/s -2.0 mm 20.7° 1015.0 hPa 0.4 m/s 0.0 mm 20.2° 1014.5 hPa 1.2 m/s
14:00 23.8° 1013.5 hPa 1.7 m/s 0.0 mm 22.6° 1012.2 hPa 1.3 m/s 0.0 mm 23.8° 1013.5 hPa 1.9 m/s 0.0 mm 24.7° 1013.4 hPa 1.8 m/s 0.0 mm 23.8° 1013.2 hPa 1.9 m/s
17:00 24.5° 1011.7 hPa 2.5 m/s 0.0 mm 24.6° 1010.3 hPa 2.5 m/s 0.0 mm 24.2° 1011.6 hPa 1.9 m/s 0.0 mm 25.1° 1011.8 hPa 2.7 m/s 0.0 mm 24.2° 1011.6 hPa 1.7 m/s
20:00 21.5° 1011.5 hPa 2.1 m/s 0.0 mm 23.1° 1010.0 hPa 2.8 m/s 0.0 mm 21.3° 1011.2 hPa 1.2 m/s 0.0 mm 21.7° 1011.7 hPa 2.1 m/s 0.0 mm 20.3° 1011.1 hPa 1.7 m/s
23:00 18.7° 1011.7 hPa 1.9 m/s 0.0 mm 17.4° 1012.6 hPa 6.5 m/s 2.4 mm 18.9° 1011.5 hPa 0.9 m/s 0.0 mm 19.4° 1011.9 hPa 1.5 m/s 0.0 mm 14.1° 1014.5 hPa 6.5 m/s
 07:26     19:43    Daglengte: 12:17 Morgen
02:00 16.6° 1012.5 hPa 4.7 m/s 4.8 mm 16.4° 1011.0 hPa 2.6 m/s 14.1 mm 17.2° 1012.0 hPa 2.3 m/s 5.0 mm 16.8° 1012.7 hPa 5.0 m/s 0.0 mm 14.0° 1015.8 hPa 2.2 m/s
05:00 15.1° 1013.3 hPa 3.9 m/s 21.0 mm 15.8° 1011.1 hPa 7.1 m/s 47.9 mm 15.0° 1012.9 hPa 2.7 m/s 20.1 mm 16.2° 1014.1 hPa 3.9 m/s 0.0 mm 13.3° 1015.7 hPa 1.8 m/s
08:00 14.1° 1015.3 hPa 0.9 m/s 13.4 mm 15.5° 1012.1 hPa 4.6 m/s 59.1 mm 14.9° 1014.7 hPa 0.9 m/s 1.2 mm 13.0° 1016.3 hPa 0.4 m/s 0.0 mm 12.9° 1016.0 hPa 1.4 m/s
11:00 15.8° 1016.9 hPa 1.4 m/s 4.2 mm 16.9° 1013.2 hPa 5.0 m/s 60.7 mm 15.5° 1016.3 hPa 0.6 m/s 1.3 mm 17.5° 1017.4 hPa 1.5 m/s 0.0 mm 16.5° 1016.0 hPa 1.8 m/s
14:00 18.3° 1016.5 hPa 2.4 m/s 0.0 mm 18.6° 1013.2 hPa 2.3 m/s 64.5 mm 18.1° 1016.4 hPa 3.0 m/s 0.4 mm 20.4° 1016.8 hPa 2.7 m/s 0.0 mm 17.6° 1015.5 hPa 3.3 m/s
17:00 18.2° 1015.8 hPa 1.9 m/s 0.0 mm 20.3° 1012.5 hPa 3.8 m/s 69.7 mm 17.7° 1016.1 hPa 2.3 m/s 0.0 mm 20.0° 1015.7 hPa 1.3 m/s 0.0 mm 15.0° 1016.5 hPa 1.3 m/s
20:00 16.5° 1016.8 hPa 1.5 m/s 0.0 mm 18.0° 1013.8 hPa 3.8 m/s 75.8 mm 16.2° 1017.2 hPa 1.2 m/s 0.0 mm 18.7° 1016.1 hPa 1.2 m/s 0.0 mm 14.3° 1017.2 hPa 0.1 m/s
23:00 15.5° 1017.4 hPa 0.8 m/s 0.0 mm 16.5° 1014.8 hPa 4.2 m/s 75.8 mm 15.3° 1017.7 hPa 0.4 m/s 0.0 mm 16.8° 1017.0 hPa 0.8 m/s 0.0 mm 14.4° 1017.6 hPa 0.6 m/s
 07:27     19:41    Daglengte: 12:14 Maandag 20 Sep
02:00 14.8° 1017.1 hPa 0.8 m/s 5.3 mm 15.5° 1014.8 hPa 2.8 m/s 75.8 mm 14.8° 1017.5 hPa 0.2 m/s 0.9 mm 15.2° 1016.2 hPa 0.4 m/s 0.0 mm 14.4° 1017.5 hPa 0.6 m/s
05:00 14.4° 1016.8 hPa 1.1 m/s 0.0 mm 15.6° 1014.5 hPa 5.1 m/s 75.9 mm 14.4° 1017.5 hPa 0.5 m/s 0.6 mm 13.9° 1016.9 hPa 0.3 m/s
08:00 14.1° 1017.3 hPa 0.8 m/s 0.0 mm 15.5° 1015.2 hPa 4.2 m/s 76.6 mm 14.1° 1018.2 hPa 0.1 m/s 0.0 mm 14.0° 1017.2 hPa 0.1 m/s
11:00 15.4° 1018.1 hPa 1.1 m/s 17.4 mm 17.5° 1016.1 hPa 3.6 m/s 77.0 mm 15.2° 1019.4 hPa 0.5 m/s 0.5 mm 14.4° 1018.0 hPa 0.3 m/s
14:00 16.9° 1017.9 hPa 2.4 m/s 17.9 mm 19.0° 1016.3 hPa 4.8 m/s 77.1 mm 16.8° 1019.0 hPa 2.2 m/s 0.0 mm 15.0° 1018.6 hPa 1.6 m/s
17:00 15.8° 1018.0 hPa 2.1 m/s 19.6 mm 18.8° 1016.2 hPa 5.4 m/s 77.1 mm 15.5° 1019.2 hPa 1.6 m/s 0.8 mm 14.6° 1018.9 hPa 1.6 m/s
20:00 15.1° 1019.4 hPa 1.5 m/s 8.7 mm 17.1° 1017.2 hPa 4.0 m/s 77.3 mm 15.0° 1020.3 hPa 1.0 m/s 0.2 mm 14.3° 1019.9 hPa 1.8 m/s
23:00 14.7° 1020.7 hPa 1.6 m/s 8.9 mm 16.0° 1018.7 hPa 3.4 m/s 77.4 mm 14.8° 1021.5 hPa 0.9 m/s 0.1 mm 13.8° 1021.4 hPa 1.7 m/s
 07:28     19:39    Daglengte: 12:11 Dinsdag 21 Sep
02:00 14.5° 1021.0 hPa 2.8 m/s 0.0 mm 15.1° 1018.9 hPa 3.5 m/s 77.4 mm 14.6° 1021.8 hPa 1.2 m/s 0.0 mm 13.7° 1022.1 hPa 1.9 m/s
05:00 14.3° 1022.1 hPa 1.9 m/s 0.0 mm 13.7° 1019.5 hPa 3.2 m/s 77.4 mm 14.4° 1022.7 hPa 1.6 m/s 0.0 mm 12.9° 1022.4 hPa 1.6 m/s
08:00 14.0° 1023.1 hPa 1.8 m/s 0.0 mm 12.9° 1020.6 hPa 3.5 m/s 77.4 mm 14.3° 1023.8 hPa 1.4 m/s 0.0 mm 12.3° 1023.6 hPa 1.4 m/s
11:00 16.7° 1021.8 hPa 2.5 m/s 77.4 mm 16.7° 1021.8 hPa 2.5 m/s 77.4 mm 14.8° 1025.0 hPa 2.6 m/s
14:00 21.5° 1022.2 hPa 3.6 m/s 77.4 mm 21.5° 1022.2 hPa 3.6 m/s 77.4 mm 19.0° 1024.6 hPa 3.2 m/s
17:00 20.9° 1023.8 hPa 2.7 m/s 25.2 mm 20.9° 1023.8 hPa 2.7 m/s 25.2 mm
20:00 17.0° 1025.3 hPa 1.9 m/s 25.2 mm 17.0° 1025.3 hPa 1.9 m/s 25.2 mm
23:00 14.9° 1025.6 hPa 1.7 m/s 25.2 mm 14.9° 1025.6 hPa 1.7 m/s 25.2 mm
 07:29     19:37    Daglengte: 12:08 Woensdag 22 Sep
02:00 13.5° 1025.8 hPa 1.5 m/s 25.2 mm 13.5° 1025.8 hPa 1.5 m/s 25.2 mm
05:00 12.1° 1025.1 hPa 0.8 m/s 25.2 mm 12.1° 1025.1 hPa 0.8 m/s 25.2 mm
08:00 11.4° 1025.1 hPa 1.0 m/s 25.2 mm 11.4° 1025.1 hPa 1.0 m/s 25.2 mm
11:00 16.2° 1024.7 hPa 2.0 m/s 25.2 mm 16.2° 1024.7 hPa 2.0 m/s 25.2 mm
14:00 20.3° 1022.9 hPa 3.0 m/s 25.2 mm 20.3° 1022.9 hPa 3.0 m/s 25.2 mm
17:00 21.3° 1021.3 hPa 2.4 m/s 25.2 mm 21.3° 1021.3 hPa 2.4 m/s 25.2 mm
20:00 17.3° 1021.2 hPa 1.3 m/s 25.2 mm 17.3° 1021.2 hPa 1.3 m/s 25.2 mm
23:00 15.5° 1021.5 hPa 1.0 m/s 25.2 mm 15.5° 1021.5 hPa 1.0 m/s 25.2 mm
 07:31     19:35    Daglengte: 12:04 Donderdag 23 Sep
02:00 14.2° 1021.4 hPa 0.5 m/s 25.2 mm 14.2° 1021.4 hPa 0.5 m/s 25.2 mm
05:00 13.1° 1020.9 hPa 0.4 m/s 25.2 mm 13.1° 1020.9 hPa 0.4 m/s 25.2 mm
08:00 12.5° 1020.6 hPa 0.8 m/s 25.2 mm 12.5° 1020.6 hPa 0.8 m/s 25.2 mm
11:00 18.1° 1020.4 hPa 0.6 m/s 25.2 mm 18.1° 1020.4 hPa 0.6 m/s 25.2 mm
14:00 23.0° 1018.7 hPa 0.7 m/s 25.2 mm 23.0° 1018.7 hPa 0.7 m/s 25.2 mm
17:00 23.9° 1016.5 hPa 2.2 m/s 25.2 mm 23.9° 1016.5 hPa 2.2 m/s 25.2 mm
20:00 18.9° 1016.6 hPa 0.6 m/s 25.2 mm 18.9° 1016.6 hPa 0.6 m/s 25.2 mm
23:00 16.7° 1017.1 hPa 1.1 m/s 25.2 mm 16.7° 1017.1 hPa 1.1 m/s 25.2 mm
 07:32     19:33    Daglengte: 12:01 Vrijdag 24 Sep
02:00 15.2° 1016.7 hPa 0.6 m/s 25.2 mm 15.2° 1016.7 hPa 0.6 m/s 25.2 mm
05:00 14.0° 1015.8 hPa 0.8 m/s 25.2 mm 14.0° 1015.8 hPa 0.8 m/s 25.2 mm
08:00 13.5° 1015.6 hPa 0.3 m/s 25.2 mm 13.5° 1015.6 hPa 0.3 m/s 25.2 mm
11:00 19.3° 1015.4 hPa 0.4 m/s 25.2 mm 19.3° 1015.4 hPa 0.4 m/s 25.2 mm
14:00 23.5° 1014.0 hPa 1.7 m/s 25.2 mm 23.5° 1014.0 hPa 1.7 m/s 25.2 mm
17:00 24.1° 1012.6 hPa 2.8 m/s 25.2 mm 24.1° 1012.6 hPa 2.8 m/s 25.2 mm
20:00 19.0° 1013.9 hPa 2.2 m/s 25.2 mm 19.0° 1013.9 hPa 2.2 m/s 25.2 mm
23:00 16.6° 1015.1 hPa 1.2 m/s 25.2 mm 16.6° 1015.1 hPa 1.2 m/s 25.2 mm
 07:33     19:32    Daglengte: 11:59 Zaterdag 25 Sep
02:00 15.5° 1015.5 hPa 1.0 m/s 25.2 mm 15.5° 1015.5 hPa 1.0 m/s 25.2 mm
05:00 14.4° 1015.2 hPa 0.9 m/s 25.2 mm 14.4° 1015.2 hPa 0.9 m/s 25.2 mm
08:00 13.6° 1015.6 hPa 0.7 m/s 25.2 mm 13.6° 1015.6 hPa 0.7 m/s 25.2 mm
14:00 22.2° 1015.1 hPa 2.4 m/s 25.2 mm 22.2° 1015.1 hPa 2.4 m/s 25.2 mm
20:00 18.9° 1015.1 hPa 1.6 m/s 25.2 mm 18.9° 1015.1 hPa 1.6 m/s 25.2 mm
 07:34     19:30    Daglengte: 11:56 Zondag 26 Sep
02:00 15.3° 1017.0 hPa 0.8 m/s 25.2 mm 15.3° 1017.0 hPa 0.8 m/s 25.2 mm
08:00 13.3° 1017.5 hPa 1.0 m/s 25.2 mm 13.3° 1017.5 hPa 1.0 m/s 25.2 mm
14:00 22.7° 1017.1 hPa 1.6 m/s 25.2 mm 22.7° 1017.1 hPa 1.6 m/s 25.2 mm
20:00 19.4° 1015.9 hPa 1.1 m/s 25.2 mm 19.4° 1015.9 hPa 1.1 m/s 25.2 mm
 07:36     19:28    Daglengte: 11:52 Maandag 27 Sep
02:00 16.2° 1016.7 hPa 0.2 m/s 25.2 mm 16.2° 1016.7 hPa 0.2 m/s 25.2 mm
08:00 15.5° 1016.2 hPa 0.5 m/s 25.4 mm 15.5° 1016.2 hPa 0.5 m/s 25.4 mm
14:00 18.2° 1016.7 hPa 2.4 m/s 25.4 mm 18.2° 1016.7 hPa 2.4 m/s 25.4 mm
20:00 18.2° 1015.7 hPa 1.3 m/s 25.4 mm 18.2° 1015.7 hPa 1.3 m/s 25.4 mm
 07:37     19:26    Daglengte: 11:49 Dinsdag 28 Sep
02:00 17.4° 1017.0 hPa 1.3 m/s 25.7 mm 17.4° 1017.0 hPa 1.3 m/s 25.7 mm
08:00 10.4° 1022.4 hPa 0.2 m/s 0.4 mm
14:00 20.7° 1020.8 hPa 0.2 m/s 0.2 mm
20:00 15.9° 1021.1 hPa 0.3 m/s 0.2 mm
 07:38     19:24    Daglengte: 11:46 Woensdag 29 Sep
02:00 12.8° 1022.4 hPa 0.6 m/s 0.3 mm
08:00 11.6° 1022.2 hPa 0.4 m/s 0.4 mm
14:00 21.1° 1020.7 hPa 0.2 m/s 0.6 mm
20:00 16.3° 1020.8 hPa 0.4 m/s 0.3 mm
 07:39     19:22    Daglengte: 11:43 Donderdag 30 Sep
02:00 13.3° 1021.7 hPa 0.6 m/s 0.8 mm
08:00 12.0° 1021.4 hPa 0.4 m/s 0.9 mm
14:00 20.8° 1019.7 hPa 0.3 m/s 0.9 mm
20:00 16.1° 1019.3 hPa 0.1 m/s 0.8 mm
 07:41     19:20    Daglengte: 11:39 Vrijdag 01 Okt
02:00 13.1° 1019.7 hPa 0.4 m/s 1.1 mm
08:00 11.7° 1019.0 hPa 0.1 m/s 2.0 mm
14:00 19.1° 1017.0 hPa 0.5 m/s 2.2 mm
20:00 14.9° 1016.9 hPa 1.0 m/s 1.0 mm
 07:42     19:18    Daglengte: 11:36 Zaterdag 02 Okt
02:00 12.1° 1017.8 hPa 0.9 m/s 1.8 mm
08:00 10.6° 1017.8 hPa 0.6 m/s 2.0 mm
14:00 17.9° 1016.6 hPa 1.5 m/s 1.3 mm
20:00 14.1° 1017.1 hPa 1.2 m/s 0.9 mm
 07:43     19:16    Daglengte: 11:33 Zondag 03 Okt
02:00 11.6° 1018.3 hPa 0.8 m/s 0.3 mm
08:00 10.0° 1018.6 hPa 0.9 m/s 1.1 mm
FMI Hirlam - 7.5 km EWN WRFDA - 12 km DWD ICON - 7 km GFS - 25 km Basiskaart






























































Updatetijd (Europe/Amsterdam) Resolutie Lengte Stap
FMI Hirlam 07:15, 13:15, 19:15, 01:15 7.5 km 49h 1h
EWN WRFDA 09:45, 15:45, 21:45, 03:45 12 km 73h 1h
DWD ICON 06:30, 12:30, 18:30, 00:30 7 km 75h 1h
GFS 08:30, 14:30, 20:30, 02:30 25 km 237h 3h
30+ mm
25-30 mm
20-25 mm
15-20 mm
10-15 mm
6-10 mm
4-6 mm
2-4 mm
1-2 mm
0.5-1 mm
0.2-0.5 mm
0.1-0.2 mm
30+ mm
25-30 mm
20-25 mm
15-20 mm
10-15 mm
6-10 mm
4-6 mm
2-4 mm
1-2 mm
0.5-1 mm
0.2-0.5 mm
0.1-0.2 mm
Sneeuwval
Natte sneeuw
Hagel
Vorst
30+ mm
25-30 mm
20-25 mm
15-20 mm
10-15 mm
6-10 mm
4-6 mm
2-4 mm
1-2 mm
0.5-1 mm
0.2-0.5 mm
0.1-0.2 mm
Sneeuwval
Natte sneeuw
Hagel
Vorst
Onweer
50 mm
40 mm
30 mm
26 mm
22 mm
18 mm
14 mm
10 mm
9 mm
8 mm
7 mm
6 mm
5 mm
4.5 mm
4 mm
3.5 mm
3 mm
2.5 mm
2 mm
1.5 mm
1 mm
0.8 mm
0.6 mm
0.4 mm
0.2 mm
0.05 mm
35°
30°
25°
20°
15°
10°
-5°
-10°
-15°
-20°
-25°
-30°
-35°
33> m/s
29 m/s
25 m/s
21 m/s
17 m/s
14 m/s
11 m/s
8 m/s
5 m/s
3 m/s
0 m/s
2600 J/kg
2400 J/kg
2200 J/kg
2000 J/kg
1800 J/kg
1600 J/kg
1400 J/kg
1200 J/kg
1000 J/kg
800 J/kg
600 J/kg
400 J/kg
200 J/kg
70 dBZ
65 dBZ
60 dBZ
55 dBZ
50 dBZ
45 dBZ
40 dBZ
35 dBZ
30 dBZ
25 dBZ
20 dBZ
15 dBZ
10 dBZ
5 dBZ
-1 K
-2 K
-3 K
-4 K
-5 K
-6 K
-7 K
-8 K
-9 K
950 m²/s²
900 m²/s²
850 m²/s²
800 m²/s²
750 m²/s²
700 m²/s²
650 m²/s²
600 m²/s²
550 m²/s²
500 m²/s²
450 m²/s²
400 m²/s²
350 m²/s²
300 m²/s²
250 m²/s²
200 m²/s²
150 m²/s²
100 m²/s²
46 m/s
44 m/s
42 m/s
40 m/s
38 m/s
36 m/s
34 m/s
32 m/s
30 m/s
28 m/s
26 m/s
24 m/s
22 m/s
20 m/s
16 m/s
12 m/s
8 m/s
4 m/s
30 m/s
28 m/s
26 m/s
24 m/s
22 m/s
20 m/s
18 m/s
16 m/s
14 m/s
12 m/s
10 m/s
8 m/s
6 m/s
4 m/s
2 m/s
3.0
2.8
2.6
2.4
2.2
2.0
1.8
1.6
1.4
1.2
1.0
0.8
0.6
0.4
0.2
15
14
13
12
11
10
9
8
7
6
5
4
3
2
1
90%
80%
70%
60%
50%
40%
30%
20%
10%
42
40
38
36
34
32
30
28
26
24
22
20
18
16
14
12
90+ cm
80-90 cm
70-80 cm
60-70 cm
50-60 cm
40-50 cm
30-40 cm
20-30 cm
10-20 cm
1-10 cm
Sneeuwval
Natte sneeuw
Regen
>120 mm
115 mm
110 mm
105 mm
100 mm
95 mm
90 mm
85 mm
80 mm
75 mm
70 mm
65 mm
60 mm
55 mm
50 mm
45 mm
45 mm
40 mm
35 mm
30 mm
25 mm
20 mm
15 mm
10 mm
5 mm
0.1 mm
960 hPa
880 hPa
800 hPa
720 hPa
640 hPa
560 hPa
584 gpdm
568 gpdm
552 gpdm
536 gpdm
520 gpdm
504 gpdm
488 gpdm
Extreem zwaar Noodweer Kans op onweer
15% 15% 5% 50% 15%

Dag




Kaart






35°
30°
25°
20°
15°
10°
-5°
-10°
-15°
-20°
-25°
-30°
-35°
33> m/s
29 m/s
25 m/s
21 m/s
17 m/s
14 m/s
11 m/s
8 m/s
5 m/s
3 m/s
0 m/s
Extreem zwaar Noodweer Kans op onweer
15% 15% 5% 50% 15%
>120 mm